Location: Spondin
(51.8528°N, 111.6118°W)
Time: 17:25:30
(UTC+00:00)

Vanguard 2 Rocket - All Passes

Search period start: 26 May 2022 00:00
Search period end: 05 June 2022 00:00
Orbit: 553 x 3323 km, 32.9° (Epoch: 25 May)

Date Brightness Start Highest point End Pass type
(mag) Time Alt. Az. Time Alt. Az. Time Alt. Az.
26 May - 02:09:32 10° WSW 02:15:17 15° SW 02:19:46 10° S daylight
26 May - 18:23:33 10° S 18:33:54 17° SE 18:43:08 10° ESE daylight
26 May - 20:33:09 10° SW 20:48:18 30° SSE 20:59:42 10° ESE daylight
26 May - 22:48:19 10° WSW 23:02:40 33° S 23:12:15 10° SE daylight
27 May - 01:06:03 10° WSW 01:15:34 22° SSW 01:22:15 10° SSE daylight
27 May - 17:27:10 10° SSE 17:32:59 12° SE 17:38:35 10° ESE daylight
27 May - 19:32:18 10° SSW 19:47:04 27° SSE 19:59:05 10° ESE daylight
27 May - 21:46:05 10° SW 22:01:46 35° S 22:12:45 10° ESE daylight
28 May - 00:03:04 10° WSW 00:15:29 29° SSW 00:23:51 10° SSE daylight
28 May - 02:23:57 10° WSW 02:27:11 12° SW 02:30:02 10° SSW daylight
28 May - 18:32:17 10° S 18:45:51 23° SSE 18:57:46 10° ESE daylight
28 May - 20:44:14 10° SW 21:00:35 35° S 21:12:48 10° ESE daylight
28 May - 23:00:19 10° WSW 23:14:58 34° SSW 23:24:53 10° SE daylight
29 May - 01:19:02 10° WSW 01:27:35 19° SW 01:33:56 10° S daylight
29 May - 17:33:28 10° S 17:44:44 18° SE 17:55:21 10° ESE daylight
29 May - 19:42:57 10° SW 19:59:13 33° SSE 20:12:23 10° ESE daylight
29 May - 21:57:51 10° WSW 22:14:04 37° S 22:25:29 10° SE daylight
30 May - 00:15:35 10° WSW 00:27:36 26° SSW 00:35:59 10° SSE daylight
30 May - 16:36:59 10° SSE 16:43:51 13° SE 16:50:39 10° ESE daylight
30 May - 18:42:22 10° SSW 18:57:48 29° SSE 19:11:24 10° ESE daylight
30 May - 20:55:46 10° SW 21:12:50 38° S 21:25:38 10° ESE daylight
30 May - 23:12:35 10° WSW 23:27:10 32° SSW 23:37:16 10° SE daylight
31 May - 01:32:44 10° WSW 01:39:24 15° SW 01:44:46 10° SSW daylight
31 May - 17:42:38 10° S 17:56:29 24° SSE 18:09:39 10° ESE daylight
31 May - 19:54:11 10° SW 20:11:21 37° S 20:25:21 10° ESE daylight
31 May - 22:09:54 10° WSW 22:26:17 37° SSW 22:38:01 10° SE daylight
01 Jun - 00:28:26 10° WSW 00:39:30 22° SW 00:47:38 10° S daylight
01 Jun - 16:44:05 10° S 16:55:24 19° SE 17:06:47 10° ESE daylight
01 Jun - 18:53:14 10° SW 19:09:47 34° SSE 19:24:32 10° ESE daylight
01 Jun - 21:07:38 10° WSW 21:25:02 39° S 21:38:17 10° ESE daylight
01 Jun - 23:25:03 10° WSW 23:39:10 29° SSW 23:49:18 10° SSE daylight
02 Jun - 01:48:53 10° WSW 01:51:00 10° SW 01:52:59 10° SW daylight
02 Jun - 15:47:54 10° SSE 15:54:38 13° SE 16:01:36 10° ESE daylight
02 Jun - 17:52:59 10° SSW 18:08:16 30° SSE 18:23:06 10° ESE daylight
02 Jun - 20:05:51 10° SW 20:23:29 40° S 20:38:04 10° ESE daylight
02 Jun - 22:22:10 10° WSW 22:38:23 35° SSW 22:50:17 10° SE daylight
03 Jun - 00:41:51 10° WSW 00:51:12 18° SW 00:58:34 10° S daylight
03 Jun - 16:53:36 10° S 17:07:00 25° SE 17:20:54 10° E daylight
03 Jun - 19:04:38 10° SW 19:21:48 38° SSE 19:37:22 10° ESE daylight
03 Jun - 21:19:45 10° WSW 21:37:09 39° S 21:50:42 10° SE daylight
03 Jun - 23:37:51 10° W 23:50:59 25° SW 00:00:53 10° SSE daylight
04 Jun - 15:55:26 10° S 16:06:03 19° SE 16:17:31 10° ESE daylight
04 Jun - 18:04:04 10° SW 18:20:08 35° SSE 18:36:06 10° ESE daylight
04 Jun - 20:17:49 10° WSW 20:35:36 41° S 20:50:36 10° ESE daylight
04 Jun - 22:34:41 10° WSW 22:50:18 32° SSW 23:02:12 10° SSE daylight
